Lid_Strength_Index
-2 -2 -2 -2 -2 -2 -2 -2 -1 -1 -1 -1 -1 -1 -1 -1 0 3 6 3 2 -1 1 4 4 5 4 5 5 7 11 13 11 13 13 11 11 10 7 7 7 6 6 4 3
-2 -2 -2 -2 -2 -2 -2 -2 -2 -1 -1 -1 -1 -1 -1 -0 2 4 1 -1 -1 -1 4 6 6 6 7 7 6 9 12 11 8 9 12 12 12 9 8 8 8 8 5 3 3
-1 -1 -2 -2 -2 -2 -2 -1 -1 -1 -1 -1 -1 -1 -0 0 4 4 -1 -1 -2 -1 2 4 6 8 9 7 8 8 12 8 8 7 7 11 12 11 9 10 7 8 6 4 4
-1 -1 -1 -1 -1 -2 -2 -1 -1 -1 -1 -1 -1 -1 -1 1 11 2 -2 -2 -2 -0 2 4 6 8 10 9 7 10 8 7 7 6 8 11 12 12 9 8 7 5 4 4 5
-1 -1 -1 -1 -1 -2 -2 -1 -1 -1 -1 -1 -1 -1 1 5 6 0 -1 -1 0 1 4 4 6 7 9 9 8 9 8 7 6 6 6 9 12 12 11 10 6 4 4 5 4
-1 -1 -1 -1 -1 -1 -1 -2 -1 -1 -1 -1 -1 -1 3 9 0 -0 0 0 1 2 4 4 5 5 7 9 10 8 8 8 8 7 8 11 12 13 13 8 6 5 5 5 4
-1 -1 -1 -1 -1 -1 -1 -1 -1 -1 -1 -1 -1 0 4 6 0 0 -0 1 1 2 4 3 3 5 6 9 7 8 10 8 8 9 11 11 12 13 12 8 7 6 5 5 4
-1 -1 -1 -1 -1 -1 -1 -1 -1 -1 -1 -1 -1 1 6 0 1 1 0 1 0 2 3 2 2 5 7 8 10 11 11 14 9 10 11 11 13 10 12 10 8 7 6 5 5
-0 -0 -1 -1 -1 -1 -1 -1 -1 -1 -1 -1 2 3 7 -0 3 1 1 3 2 2 2 2 3 7 8 10 14 13 16 15 12 10 11 12 13 10 9 12 10 8 6 6 5
-1 -0 -1 -1 -1 -1 -1 -1 -1 -1 -0 0 1 6 4 6 3 2 2 2 4 4 5 6 7 10 10 12 17 17 15 14 14 11 13 13 13 11 10 12 13 11 7 6 6
0 -0 -1 -1 -1 -1 -0 1 4 5 4 6 6 6 5 3 1 3 2 3 4 6 10 8 11 14 12 10 10 12 13 14 12 10 12 13 12 11 10 12 12 13 13 9 6
-0 -0 -0 -1 -1 -1 0 4 4 5 8 4 5 5 4 3 7 5 2 7 8 11 9 11 13 10 9 9 10 11 13 13 12 10 12 13 14 12 13 11 11 11 12 12 12
-0 -0 -0 -1 -1 0 2 3 1 3 8 7 5 6 5 4 7 7 4 6 9 11 11 13 11 8 10 11 12 12 13 13 13 13 14 15 14 13 13 11 11 11 10 10 10
-0 -0 -0 -0 2 2 4 1 1 3 13 11 8 6 5 5 9 4 3 6 9 11 10 11 8 10 11 12 11 14 10 11 12 13 17 14 18 15 14 12 12 11 10 9 10
1 -0 -0 -0 3 4 2 1 1 3 20 9 9 3 5 7 7 7 4 6 10 10 10 13 11 12 13 12 10 13 10 11 12 13 14 15 17 16 15 15 14 12 11 10 9
0 0 -0 1 2 2 1 1 3 13 19 12 8 9 9 8 8 7 7 5 6 9 9 11 9 9 10 9 9 9 11 11 12 14 19 15 16 16 15 14 13 12 11 10 9
0 0 1 1 4 1 0 4 14 18 13 13 12 10 10 11 10 9 10 11 12 15 15 12 11 9 8 11 9 10 13 19 20 20 20 15 17 14 14 14 12 11 12 13 11
0 0 1 2 1 0 3 10 18 17 15 9 10 10 12 11 11 10 11 13 10 11 13 16 17 11 9 11 13 12 13 18 23 21 19 17 18 15 12 10 12 13 13 13 12
0 2 3 2 0 1 7 15 15 16 11 12 11 13 13 11 11 12 12 12 10 10 14 16 16 10 9 9 10 13 15 11 17 24 20 19 18 15 14 14 13 13 13 13 13
3 4 4 1 0 3 10 13 12 11 9 10 14 12 15 13 13 13 13 10 10 9 10 12 17 11 10 9 9 11 9 16 15 21 23 19 19 15 14 13 13 14 12 13 14
4 7 3 0 1 7 13 12 11 9 8 10 12 13 13 13 12 13 13 11 9 9 9 11 13 14 11 13 13 13 14 13 13 17 19 22 18 16 12 13 13 12 11 13 14
6 11 2 1 10 9 12 10 9 9 9 10 10 11 12 12 13 13 13 11 8 8 12 10 13 16 15 10 10 10 12 13 17 18 19 18 16 15 14 14 12 11 13 14 14
8 8 2 3 13 12 12 11 10 10 10 10 11 10 10 12 14 12 12 8 7 9 11 10 14 18 17 13 13 13 11 11 14 14 18 18 17 15 15 14 13 13 13 14 14
8 11 9 7 10 12 13 13 13 10 10 9 10 9 11 12 11 13 12 9 8 8 7 8 13 15 18 16 13 14 12 11 12 15 15 15 14 15 15 15 15 14 13 13 13
10 10 9 13 14 11 12 12 12 13 10 9 11 11 11 14 12 13 11 10 9 8 9 10 15 13 13 13 12 13 13 12 13 12 14 13 14 15 14 15 15 14 13 12 12
12 11 11 11 11 11 11 13 12 12 11 12 12 10 10 12 12 13 11 11 12 10 10 11 15 13 15 13 13 14 12 12 12 11 14 15 15 13 13 14 14 13 13 12 12
10 9 9 10 12 13 14 12 12 11 11 10 10 10 11 10 8 8 7 8 9 11 13 13 14 15 17 14 14 17 13 12 12 11 11 14 12 13 14 14 13 13 13 12 12